Salina, KS

10:26 PM CDT on July 23, 2017 (GMT -0500)
Salina Municipal

Weather History for KSLN - November, 2010

Change the Weather History Date:

Wednesday, November 17, 2010

  Actual Average Record
Temperature  
Mean Temperature 39 °F 43 °F  
Max Temperature 48 °F 54 °F 80 °F (1999)
Min Temperature 30 °F 32 °F 3 °F (1959)
Degree Days  
Heating Degree Days 26 22  
Month to date heating degree days 299 302  
Since 1 July heating degree days 496 620  
Cooling Degree Days 0 0  
Month to date cooling degree days 0 0  
Year to date cooling degree days 1872 1646  
Moisture  
Dew Point 34 °F    
Average Humidity 83    
Maximum Humidity 100    
Minimum Humidity 65    
Precipitation  
Precipitation 0.24 in 0.04 in 1.06 in (1928)
Month to date precipitation 3.18 0.78  
Year to date precipitation 27.60 30.09  
Sea Level Pressure  
Sea Level Pressure 30.12 in    
Wind  
Wind Speed 12 mph (NNE)    
Max Wind Speed 25 mph    
Max Gust Speed 35 mph    
Visibility 7 miles    
Events Rain , Snow    
T = Trace of Precipitation, MM = Missing Value Source: NWS Daily Summary

Daily Weather History Graph

Daily Weather History Graph

Search for Another Location

Airport or City:

Trip Planner

Search our weather history database for the weather conditions in past years. The results will help you decide how hot, cold, wet, or windy it might be!

Date:

Astronomy

Nov. 17, 2010 Rise Set
Actual Time 7:15 AM CST 5:15 PM CST
Civil Twilight 6:46 AM CST 5:44 PM CST
Nautical Twilight 6:14 AM CST 6:16 PM CST
Astronomical Twilight 5:42 AM CST 6:47 PM CST
Moon 2:46 PM CST (11/17) 3:17 AM CST (11/17)
Length of Visible Light 10h 57m
Length of Day
10h 00m
Waxing Gibbous, 85% of the Moon is Illuminated
Nov 17
Waxing Gibbous
Nov 21
Full
Nov 28
Last Quarter
Dec 5
New
Dec 13
First Quarter

Hourly Weather History & Observations

Time (CST) Temp. Windchill Dew Point Humidity Pressure Visibility Wind Dir Wind Speed Gust Speed Precip Events Conditions
12:53 AM 46.9 °F - 37.0 °F 68% 29.74 in 10.0 mi East 10.4 mph - N/A   Mostly Cloudy
1:53 AM 48.0 °F - 37.0 °F 66% 29.74 in 10.0 mi East 11.5 mph - N/A   Overcast
2:53 AM 46.9 °F - 37.0 °F 68% 29.76 in 10.0 mi East 10.4 mph - 0.00 in   Partly Cloudy
3:53 AM 46.0 °F 41.0 °F 37.0 °F 71% 29.78 in 10.0 mi East 10.4 mph - N/A   Partly Cloudy
4:53 AM 45.0 °F 38.9 °F 37.0 °F 74% 29.81 in 10.0 mi East 12.7 mph 23.0 mph N/A   Clear
5:53 AM 46.0 °F 39.9 °F 36.0 °F 68% 29.84 in 10.0 mi ENE 13.8 mph 24.2 mph N/A   Mostly Cloudy
6:53 AM 45.0 °F 38.5 °F 35.1 °F 68% 29.91 in 10.0 mi NE 13.8 mph 21.9 mph N/A   Overcast
7:53 AM 43.0 °F 34.5 °F 36.0 °F 76% 29.98 in 10.0 mi NNE 19.6 mph 26.5 mph N/A   Mostly Cloudy
8:53 AM 43.0 °F 34.0 °F 35.1 °F 74% 30.04 in 10.0 mi NNE 21.9 mph 27.6 mph N/A   Overcast
9:53 AM 41.0 °F 32.5 °F 37.0 °F 86% 30.09 in 8.0 mi NNE 17.3 mph 33.4 mph 0.00 in Rain Light Rain
10:02 AM 41.0 °F 32.5 °F 37.4 °F 87% 30.09 in 6.0 mi NNE 17.3 mph 27.6 mph 0.00 in Rain Light Rain
10:53 AM 39.0 °F 29.0 °F 37.0 °F 93% 30.15 in 3.0 mi NNE 20.7 mph 34.5 mph 0.06 in Rain Rain
11:13 AM 37.4 °F 26.9 °F 35.6 °F 93% 30.14 in 4.0 mi NNE 20.7 mph 28.8 mph 0.02 in Rain Light Rain
11:53 AM 35.1 °F 24.8 °F 33.1 °F 92% 30.19 in 4.0 mi NNE 17.3 mph - 0.08 in Rain Light Rain
12:10 PM 33.8 °F 24.3 °F 32.0 °F 93% 30.17 in 1.8 mi NNE 13.8 mph - 0.01 in Snow Light Snow
12:53 PM 33.1 °F 24.4 °F 32.0 °F 96% 30.19 in 1.0 mi North 11.5 mph - 0.04 in Snow Light Snow
1:20 PM 33.8 °F 24.3 °F 33.8 °F 100% 30.18 in 2.5 mi North 13.8 mph - 0.03 in Snow Light Snow
1:27 PM 35.6 °F 27.1 °F 33.8 °F 93% 30.19 in 3.0 mi North 12.7 mph - 0.04 in Rain Light Rain
1:53 PM 37.0 °F 27.7 °F 35.1 °F 93% 30.21 in 4.0 mi North 16.1 mph - 0.06 in   Overcast
2:53 PM 37.9 °F 27.3 °F 34.0 °F 86% 30.23 in 4.0 mi North 21.9 mph 26.5 mph N/A   Overcast
3:53 PM 37.9 °F 30.0 °F 33.1 °F 83% 30.27 in 6.0 mi North 12.7 mph - N/A   Haze
4:53 PM 37.9 °F 28.2 °F 30.9 °F 76% 30.29 in 9.0 mi NNE 18.4 mph - N/A   Overcast
5:53 PM 36.0 °F 31.1 °F 30.9 °F 82% 30.31 in 10.0 mi North 5.8 mph - N/A   Partly Cloudy
6:53 PM 33.1 °F 26.9 °F 30.9 °F 92% 30.34 in 8.0 mi NW 6.9 mph - N/A   Clear
7:53 PM 30.2 °F 24.3 °F 30.2 °F 100% 30.35 in 7.0 mi WNW 5.8 mph - N/A   Clear
8:53 PM 33.1 °F 30.0 °F 30.9 °F 92% 30.39 in 8.0 mi West 3.5 mph - N/A   Overcast
9:53 PM 34.0 °F - 32.0 °F 92% 30.39 in 9.0 mi Calm Calm - N/A   Overcast
10:53 PM 33.1 °F 30.0 °F 30.9 °F 92% 30.40 in 7.0 mi SSW 3.5 mph - N/A   Scattered Clouds
11:53 PM 30.0 °F 26.5 °F 28.9 °F 96% 30.40 in 7.0 mi SW 3.5 mph - N/A   Clear